RH
7 8 10 11 13 18 19 13 12 12 12 12 12 16 25 27 32 37 42 49 52 42 41 44 42 35 29 29 22 20 24 23 21 24 21 18 15 13 11 12 18 13 16 16 13 16 14 13 12
8 12 13 14 20 16 13 12 11 10 10 10 12 15 22 31 32 35 40 47 47 41 38 43 44 45 36 30 30 25 27 26 23 23 26 21 15 12 10 14 16 16 19 15 17 16 13 14 13
10 14 14 18 18 19 13 10 10 12 9 9 11 16 25 32 33 34 39 45 43 40 37 38 39 42 45 36 35 31 30 28 25 23 30 24 20 13 9 14 16 17 22 18 22 16 12 14 15
15 18 17 23 19 10 10 11 13 14 11 9 12 20 29 31 32 32 33 38 38 39 37 36 36 36 40 43 38 33 34 32 25 27 32 28 21 17 10 10 14 15 19 18 20 16 13 16 17
17 18 22 23 17 12 9 11 15 14 12 11 12 24 31 32 29 32 29 34 35 38 39 37 35 34 35 39 42 37 33 30 24 31 32 29 20 16 12 8 13 14 16 17 19 18 15 17 18
20 20 22 19 16 10 11 12 14 14 14 14 14 24 33 34 29 31 31 29 34 34 35 36 33 32 31 32 34 34 34 30 28 37 36 30 20 16 12 9 9 12 15 17 17 19 13 17 21
22 23 24 18 15 11 11 12 12 13 14 15 17 22 32 35 30 33 34 31 31 33 33 33 32 28 27 27 27 27 31 33 39 42 40 31 23 18 13 10 8 11 16 17 16 18 13 14 20
24 25 23 19 16 14 12 11 11 12 14 15 17 23 29 29 29 35 36 34 33 32 28 26 24 25 23 24 24 24 22 27 41 47 43 34 25 20 14 12 9 13 17 16 14 17 13 17 19
24 30 27 21 16 15 14 13 13 12 16 17 18 17 20 24 30 34 38 33 30 31 25 23 23 24 26 25 25 25 22 24 32 38 47 40 31 25 16 12 10 11 16 16 17 17 13 16 18
29 31 26 16 14 16 15 14 14 13 16 17 18 17 23 24 26 30 30 30 28 27 24 23 24 24 26 28 29 27 25 28 29 30 39 42 43 34 19 13 11 11 12 17 18 15 12 16 18
28 30 19 18 20 18 18 16 15 16 17 16 20 22 25 25 26 26 27 25 23 25 30 27 25 28 29 29 30 34 29 29 30 30 35 39 40 40 31 21 15 11 11 18 18 14 12 16 17
28 22 21 17 21 21 20 18 16 16 16 17 19 22 25 25 23 24 25 24 22 23 24 28 26 29 31 34 38 41 41 33 33 37 39 37 40 41 41 36 26 18 13 17 19 17 18 20 20
30 25 23 19 20 23 22 21 20 18 18 19 19 20 22 23 21 23 23 21 19 17 22 23 23 21 34 33 35 42 41 38 41 42 52 53 45 44 41 43 39 29 21 18 18 21 23 29 26
28 24 24 25 25 22 23 23 22 19 20 19 19 19 19 21 23 22 21 21 20 18 17 21 22 24 26 30 34 33 39 41 42 44 48 55 62 60 48 43 44 42 33 26 24 22 26 29 29
33 31 29 26 29 27 25 26 25 21 20 22 22 21 22 22 24 22 21 22 22 21 19 18 22 23 22 23 26 30 31 35 38 43 48 52 56 60 64 62 49 42 44 41 34 29 29 29 29
38 39 37 28 29 32 29 30 24 20 22 22 24 23 23 26 26 25 24 22 23 23 24 22 18 20 22 24 27 26 26 29 31 34 39 46 48 51 57 62 66 63 55 45 48 44 38 33 30
44 41 38 34 27 33 33 32 24 22 22 23 23 25 24 24 25 26 25 24 22 21 20 18 16 16 18 20 22 25 26 26 28 33 38 39 40 45 53 55 56 63 66 62 50 47 51 45 38
43 41 39 36 33 35 36 31 24 22 22 22 23 23 24 24 23 23 23 22 20 20 19 18 17 16 17 17 17 17 22 26 25 25 35 41 39 39 43 52 54 57 64 69 67 59 51 49 52
36 33 32 32 30 31 31 30 27 24 23 24 26 26 25 24 23 22 21 20 19 19 19 20 18 18 17 17 17 17 16 18 24 25 23 30 37 38 41 50 52 51 51 52 61 68 69 61 50
46 41 36 33 32 34 36 36 32 29 30 29 28 28 27 25 24 24 22 21 22 22 21 20 19 19 18 17 16 16 16 16 17 18 22 31 30 32 37 38 40 42 40 46 47 56 65 70 75
54 48 41 37 34 33 37 44 41 39 36 34 33 32 30 29 28 27 25 24 22 21 20 20 20 21 19 18 18 18 19 19 19 18 25 27 31 33 35 38 39 41 46 44 44 46 52 57 72
57 47 50 45 45 43 40 55 52 47 42 39 36 34 32 30 28 27 25 25 24 24 22 20 19 19 20 20 20 19 19 18 18 18 19 25 27 29 34 36 38 41 45 47 45 45 48 50 55
64 65 59 56 57 55 55 58 50 51 50 45 40 38 34 32 30 29 28 28 27 26 25 24 21 19 19 20 20 21 21 21 20 20 21 22 28 28 30 28 36 36 41 47 47 43 46 52 52
77 78 74 69 65 83 59 58 67 62 50 48 43 42 37 34 32 32 31 31 30 30 28 26 26 24 21 22 22 23 24 23 24 22 23 24 24 30 30 30 35 35 38 40 39 39 42 46 46
98 91 97 98 96 75 55 64 71 62 56 51 45 42 40 36 36 36 37 37 36 35 32 30 29 29 28 25 25 25 27 27 28 26 26 27 26 29 32 33 34 35 36 37 35 37 39 36 41
97 98 92 82 94 88 56 76 79 65 59 53 48 44 42 40 38 38 39 39 40 40 39 39 39 37 34 33 33 32 35 37 33 30 31 30 27 27 31 35 36 37 37 38 39 37 36 36 35
88 97 91 80 70 90 97 96 83 70 63 58 51 47 43 43 43 42 42 42 43 44 43 43 42 41 40 39 39 40 41 42 39 36 36 31 29 31 32 36 36 37 39 40 39 37 36 35 34
90 94 90 98 93 82 97 96 95 93 73 64 58 53 49 44 42 44 46 47 47 49 50 52 51 48 44 43 43 42 42 41 37 37 38 34 36 37 37 34 35 36 38 38 39 37 36 37 38
80 95 97 89 97 86 93 96 96 93 88 73 64 58 52 49 46 45 44 44 44 46 50 51 52 52 52 50 46 43 40 38 36 36 41 44 47 44 42 38 36 36 37 38 39 41 43 48 51
87 96 98 96 98 95 84 95 90 94 89 79 74 67 60 57 54 51 47 45 43 44 50 53 52 52 50 51 48 47 42 42 40 41 44 49 51 47 43 40 39 39 39 39 41 44 47 49 54